Regional Weather Roundup
Issued by NWS

Home | Current Version | Previous Version | Text Only | Print | Product List | Glossary Off
Versions: 1 2 3 4 5 6 7 8 9 10 11 12 13 14 15 16 17 18 19 20 21 22 23 24 25 26 27 28 29 30 31 32 33 34 35 36 37 38 39 40 41 42 43 44 45 46 47 48 49 50

000
ASUS43 KIND 230000
RWRIN

WEATHER ROUNDUP FOR INDIANA
NATIONAL WEATHER SERVICE INDIANAPOLIS IN
800 PM EDT FRI SEP 22 2017

NOTE: "FAIR" INDICATES FEW OR NO CLOUDS BELOW 12,000 FEET WITH NO
SIGNIFICANT WEATHER AND/OR OBSTRUCTIONS TO VISIBILITY.

* - STATION DOES NOT REPORT WEATHER SUCH AS PRECIPITATION OR FOG.

+ - STATION NOT QUALITY CONTROLLED BY THE NATIONAL WEATHER SERVICE.
    USE DATA WITH CAUTION...ESPECIALLY DEWPOINT AND RELATIVE
    HUMIDITY OBSERVATIONS.

INZ001>003-010>013-019-020-230100-
NORTHWEST INDIANA

CITY           SKY/WX    TMP DP  RH WIND       PRES   REMARKS
GARY /AIRPORT/ PTCLDY    84  64  51 E6        30.04R
KNOX *+        CLEAR     81  68  65 E5        30.04S
LA PORTE +     CLEAR     81  69  67 SE3       30.06S
6HR MIN TEMP:  81; 6HR MAX TEMP:  92;

MICHIGAN CITY+ CLEAR     77  70  78 CALM      30.05S
MONTICELLO +   CLEAR     82  68  63 CALM      30.04S
6HR MIN TEMP:  82; 6HR MAX TEMP:  92;

RENSSELAER +   CLEAR     82  59  44 E3        30.05R

$$

LMZ046-743>745-230100-
SOUTHERN LAKE MICHIGAN

STATION/POSITION TIME  TEMP    WIND        PRES    WAVE
                       AIR SEA DIR/SP/G            HT
                 (UTC) (F)     (DEG/KT/KT) (MB)    (FT)
BURNS HARBOR     2340   76      80/  9/ 12 1017.6R
MICHIGAN CITY    2330   79      50/ 12/ 13   N/A
5NW MICH CITY    2350   75 73   80/  6/  8   N/A     0

$$

INZ004-005-014>016-021>024-230100-
NORTH CENTRAL INDIANA

CITY           SKY/WX    TMP DP  RH WIND       PRES   REMARKS
ELKHART        CLEAR     81  70  69 CALM      30.06S
GOSHEN         CLEAR     80  67  64 CALM      30.07R
6HR MIN TEMP:  80; 6HR MAX TEMP:  93;

SOUTH BEND     CLEAR     82  70  66 CALM      30.06S
6HR MIN TEMP:  82; 6HR MAX TEMP:  90;

WARSAW +       CLEAR     79  70  73 CALM      30.07S

$$

INZ006>009-017-018-025>027-230100-
NORTHEAST INDIANA

CITY           SKY/WX    TMP DP  RH WIND       PRES   REMARKS
AUBURN +       CLEAR     79  70  73 CALM      30.08S
FORT WAYNE     PTCLDY    81  70  69 CALM      30.07S
6HR MIN TEMP:  80; 6HR MAX TEMP:  92; 6HR PCP: TRACE;

KENDALLVILLE + CLEAR     76  72  87 CALM      30.09S

$$

INZ028-029-035-036-043>045-051>053-230100-
WEST CENTRAL INDIANA

CITY           SKY/WX    TMP DP  RH WIND       PRES   REMARKS
GREENCASTLE +  PTCLDY    77  63  61 NE5       30.06R
LAFAYETTE      CLOUDY    79  70  74 CALM      30.04R
6HR MIN TEMP:  79; 6HR MAX TEMP:  92;

TERRE HAUTE    PTCLDY    83  65  54 CALM      30.03R
6HR MIN TEMP:  83; 6HR MAX TEMP:  94;


$$

INZ030>032-037>040-046>048-054>057-064-065-230100-
CENTRAL INDIANA

CITY           SKY/WX    TMP DP  RH WIND       PRES   REMARKS
COLUMBUS       PTCLDY    82  63  51 CALM      30.04R
INDIANAPOLIS   MOCLDY    80  66  62 NE7       30.05R
6HR MIN TEMP:  80; 6HR MAX TEMP:  93; 6HR PCP: TRACE;

-EAGLE CREEK   PTCLDY    81  66  60 N3        30.05R
6HR MIN TEMP:  81; 6HR MAX TEMP:  94;

KOKOMO +       CLOUDY    78  68  71 CALM      30.07S
6HR MIN TEMP:  78; 6HR MAX TEMP:  93; 6HR PCP: TRACE;

MT COMFORT *+  MOCLDY    77  70  78 N5        30.06S
SHELBYVILLE    PTCLDY    76  66  71 E7        30.04R
6HR MIN TEMP:  76; 6HR MAX TEMP:  93;


$$

INZ033-034-041-042-049-050-058-059-230100-
EAST CENTRAL INDIANA

CITY           SKY/WX    TMP DP  RH WIND       PRES   REMARKS
MUNCIE         CLOUDY    75  71  87 CALM      30.06S
6HR MIN TEMP:  75; 6HR MAX TEMP:  93; 6HR PCP:  0.02;

RICHMOND +     CLEAR     77  70  78 CALM      30.08S

$$

INZ060-061-067>069-081>083-085>088-230100-
SOUTHWEST INDIANA

CITY           SKY/WX    TMP DP  RH WIND       PRES   REMARKS
EVANSVILLE     CLEAR     84  66  54 CALM      30.01S
6HR MIN TEMP:  84; 6HR MAX TEMP:  91;

HUNTINGBURG +  CLEAR     81  71  71 CALM      30.02S
6HR MIN TEMP:  81; 6HR MAX TEMP:  90;


$$

INZ062-063-066-070>080-084-089>092-230100-
SOUTH CENTRAL AND SOUTHEAST INDIANA

CITY           SKY/WX    TMP DP  RH WIND       PRES   REMARKS
BLOOMINGTON    CLEAR     78  67  68 CALM      30.04S
6HR MIN TEMP:  78; 6HR MAX TEMP:  93;

MADISON *+     CLEAR     73  68  83 CALM      30.06S
SEYMOUR +      CLEAR     79  68  69 CALM      30.03S

$$





USA.gov is the U.S. government's official web portal to all federal, state and local government web resources and services.